Lumberton, NC

4:24 AM EST on February 06, 2016 (GMT -0500)
Lumberton Municipal

Weather History for KLBT - December, 2013

Change the Weather History Date:

Tuesday, December 3, 2013

  Actual Average Record
Temperature  
Mean Temperature 49 °F 49 °F  
Max Temperature 60 °F 61 °F 77 °F (1998)
Min Temperature 37 °F 38 °F 27 °F (2008)
Degree Days  
Heating Degree Days 16 16  
Month to date heating degree days 47 47  
Since 1 July heating degree days 563 513  
Cooling Degree Days 0 0  
Month to date cooling degree days 0 0  
Year to date cooling degree days 1861 1907  
Moisture  
Dew Point 41 °F    
Average Humidity 79    
Maximum Humidity 100    
Minimum Humidity 57    
Precipitation  
Precipitation 0.01 in 0.11 in 0.11 in (2006)
Month to date precipitation 0.01 0.33  
Year to date precipitation 40.21 40.96  
Sea Level Pressure  
Sea Level Pressure 29.94 in    
Wind  
Wind Speed 3 mph (SSE)    
Max Wind Speed 10 mph    
Max Gust Speed 14 mph    
Visibility 5 miles    
Events Fog , Rain    
T = Trace of Precipitation, MM = Missing Value Source: NWS Daily Summary

Daily Weather History Graph

Daily Weather History Graph

Search for Another Location

Airport or City:

Trip Planner

Search our weather history database for the weather conditions in past years. The results will help you decide how hot, cold, wet, or windy it might be!

Date:

Astronomy

Dec. 03, 2013 Rise Set
Actual Time 7:06 AM EST 5:05 PM EST
Civil Twilight 6:39 AM EST 5:33 PM EST
Nautical Twilight 6:07 AM EST 6:04 PM EST
Astronomical Twilight 5:37 AM EST 6:34 PM EST
Moon 7:35 AM EST (12/3) 6:06 PM EST (12/3)
Length of Visible Light 10h 53m
Length of Day
9h 58m
New Moon, 1% of the Moon is Illuminated
Dec 3
New Moon
Dec 9
First Quarter
Dec 17
Full
Dec 25
Last Quarter
Jan 1
New

Hourly Weather History & Observations

Time (EST) Temp. Windchill Dew Point Humidity Pressure Visibility Wind Dir Wind Speed Gust Speed Precip Events Conditions
12:54 AM 43.0 °F - 41.0 °F 93% 29.89 in 4.0 mi Calm Calm - N/A   Overcast
1:54 AM 42.1 °F - 41.0 °F 96% 29.89 in 4.0 mi Calm Calm - N/A   Mostly Cloudy
2:54 AM 39.9 °F - 39.0 °F 97% 29.90 in 3.0 mi Calm Calm - N/A   Partly Cloudy
3:16 AM 39.0 °F - 39.0 °F 100% 29.90 in 1.5 mi Calm Calm - N/A   Clear
3:19 AM 39.9 °F - 37.9 °F 93% 29.90 in 0.8 mi Calm Calm - N/A   Clear
3:32 AM 39.0 °F 36.8 °F 37.9 °F 96% 29.89 in 1.2 mi ESE 3.5 mph - N/A   Clear
3:37 AM 37.9 °F 35.5 °F 37.0 °F 97% 29.89 in 2.0 mi ESE 3.5 mph - N/A   Clear
3:47 AM 39.0 °F - 37.9 °F 96% 29.90 in 1.5 mi Calm Calm - N/A   Clear
3:54 AM 39.0 °F - 37.9 °F 96% 29.90 in 1.5 mi Calm Calm - N/A   Clear
3:56 AM 39.0 °F - 37.9 °F 96% 29.89 in 2.0 mi Calm Calm - N/A   Clear
4:22 AM 37.9 °F - 37.0 °F 97% 29.89 in 1.8 mi Calm Calm - N/A   Clear
4:26 AM 37.0 °F - 37.0 °F 100% 29.89 in 1.0 mi Calm Calm - N/A   Clear
4:34 AM 37.0 °F - 37.0 °F 100% 29.89 in 0.5 mi Calm Calm - N/A Fog Fog
4:54 AM 37.0 °F - 36.0 °F 96% 29.90 in 1.2 mi Calm Calm - N/A   Clear
5:04 AM 37.9 °F - 37.0 °F 97% 29.90 in 2.0 mi Calm Calm - N/A   Clear
5:13 AM 37.0 °F - 36.0 °F 96% 29.90 in 4.0 mi Calm Calm - N/A   Clear
5:54 AM 37.9 °F - 36.0 °F 93% 29.92 in 3.0 mi Calm Calm - N/A   Partly Cloudy
6:03 AM 37.9 °F - 37.0 °F 97% 29.92 in 2.5 mi Calm Calm - N/A   Clear
6:12 AM 37.9 °F - 37.0 °F 97% 29.93 in 3.0 mi Calm Calm - N/A   Clear
6:54 AM 41.0 °F - 39.0 °F 93% 29.95 in 5.0 mi Calm Calm - N/A   Overcast
7:54 AM 44.1 °F - 42.1 °F 93% 29.97 in 4.0 mi Calm Calm - N/A   Overcast
8:54 AM 46.9 °F - 42.1 °F 83% 29.96 in 6.0 mi ESE 3.5 mph - N/A   Haze
9:54 AM 53.1 °F - 44.1 °F 71% 29.98 in 8.0 mi South 4.6 mph - N/A   Mostly Cloudy
10:54 AM 55.9 °F - 44.1 °F 64% 29.99 in 10.0 mi SSW 8.1 mph - N/A   Overcast
11:54 AM 57.9 °F - 44.1 °F 60% 29.97 in 9.0 mi SSW 6.9 mph - N/A   Overcast
12:54 PM 57.9 °F - 44.1 °F 60% 29.96 in 10.0 mi SW 3.5 mph - N/A   Overcast
1:54 PM 59.0 °F - 44.1 °F 58% 29.95 in 9.0 mi South 4.6 mph - N/A   Overcast
2:54 PM 59.0 °F - 45.0 °F 60% 29.95 in 10.0 mi South 5.8 mph - N/A   Overcast
3:54 PM 59.0 °F - 45.0 °F 60% 29.95 in 10.0 mi SSE 4.6 mph - N/A   Overcast
4:54 PM 57.0 °F - 46.0 °F 67% 29.96 in 10.0 mi SE 3.5 mph - N/A   Overcast
5:54 PM 54.0 °F - 48.0 °F 80% 29.97 in 10.0 mi Calm Calm - N/A   Overcast
6:54 PM 54.0 °F - 48.0 °F 80% 29.98 in 9.0 mi ESE 6.9 mph - N/A   Overcast
7:54 PM 55.0 °F - 48.0 °F 77% 29.99 in 10.0 mi SSE 3.5 mph - N/A   Overcast
8:54 PM 54.0 °F - 48.0 °F 80% 30.00 in 9.0 mi ESE 4.6 mph - N/A   Overcast
9:54 PM 54.0 °F - 48.0 °F 80% 30.00 in 10.0 mi ESE 3.5 mph - N/A   Overcast
10:54 PM 53.1 °F - 48.9 °F 86% 30.00 in 9.0 mi Calm Calm - 0.00 in   Overcast
11:54 PM 53.1 °F - 48.0 °F 83% 30.00 in 6.0 mi SSE 4.6 mph - 0.01 in Rain Light Rain